Weather History for Thermopolis, WY

Change the Weather History Date:

Sunday, December 25, 2011

  Actual Average (KWRL) Record (KWRL)
Temperature  
Mean Temperature 28 °F 16 °F  
Max Temperature 35 °F 29 °F 57 °F (1971)
Min Temperature 21 °F 3 °F -19 °F (1962)
Degree Days  
Heating Degree Days 37 49  
Month to date heating degree days 1176  
Since 1 July heating degree days 3068  
Cooling Degree Days 0 0  
Month to date cooling degree days 0  
Year to date cooling degree days 535  
Moisture  
Dew Point 13 °F    
Average Humidity 61    
Maximum Humidity 80    
Minimum Humidity 33    
Precipitation  
Precipitation 0.00 in 0.01 in 0.25 in (2014)
Month to date precipitation 0.19  
Year to date precipitation 7.53  
Sea Level Pressure  
Sea Level Pressure 30.31 in    
Wind  
Wind Speed 14 mph ()    
Max Wind Speed 37 mph    
Max Gust Speed 41 mph    
Visibility 10.0 miles    
Events      
T = Trace of Precipitation, MM = Missing Value Source: Averaged Metar Reports

Daily Weather History Graph

Daily Weather History Graph

Search for Another Location

Airport:

Trip Planner

Search our weather history database for the weather conditions in past years. The results will help you decide how hot, cold, wet, or windy it might be!

Date:

Astronomy

Dec. 25, 2011 Rise Set
Actual Time 7:44 AM MST 4:41 PM MST
Civil Twilight 7:11 AM MST 5:14 PM MST
Nautical Twilight 6:35 AM MST 5:50 PM MST
Astronomical Twilight 6:00 AM MST 6:25 PM MST
Moon 8:23 AM MST (12/25) 6:07 PM MST (12/25)
Length of Visible Light 10h 02m
Length of Day
8h 57m
New Moon, 1% of the Moon is Illuminated
Dec 25
New Moon
Dec 31
First Quarter
Jan 9
Full
Jan 16
Last Quarter
Jan 23
New

Hourly Weather History & Observations

Time (MST) Temp. Windchill Dew Point Humidity Pressure Visibility Wind Dir Wind Speed Gust Speed Precip Events Conditions
12:15 AM 30.2 °F 20.2 °F 10.4 °F 44% 30.50 in 10.0 mi South 12.7 mph 17.3 mph N/A   Clear
12:35 AM 30.2 °F - 8.6 °F 40% 30.50 in 10.0 mi North - - N/A   Clear
12:55 AM 30.2 °F 21.3 °F 6.8 °F 37% 30.50 in 10.0 mi South 10.4 mph - N/A   Clear
1:15 AM 30.2 °F - 10.4 °F 44% 30.49 in 10.0 mi North - - N/A   Clear
1:35 AM 30.2 °F - 10.4 °F 44% 30.49 in 10.0 mi North - - N/A   Clear
1:55 AM 30.2 °F - 8.6 °F 40% 30.47 in 10.0 mi North - - N/A   Clear
2:15 AM 30.2 °F - 8.6 °F 40% 30.46 in 10.0 mi North - - N/A   Clear
2:55 AM 28.4 °F - 6.8 °F 40% 30.46 in 10.0 mi North - - N/A   Clear
3:15 AM 28.4 °F - 8.6 °F 43% 30.46 in 10.0 mi North - - N/A   Clear
3:35 AM 26.6 °F - 8.6 °F 47% 30.46 in 10.0 mi North - - N/A   Clear
3:55 AM 24.8 °F - 10.4 °F 54% 30.46 in 10.0 mi North - - N/A   Clear
4:15 AM 26.6 °F - 10.4 °F 51% 30.46 in 10.0 mi North - - N/A   Clear
4:35 AM 23.0 °F - 8.6 °F 54% 30.45 in 10.0 mi North - - N/A   Clear
4:55 AM 24.8 °F - 10.4 °F 54% 30.45 in 10.0 mi North - - N/A   Clear
5:15 AM 23.0 °F - 8.6 °F 54% 30.44 in 10.0 mi North - - N/A   Clear
5:35 AM 26.6 °F - 10.4 °F 51% 30.44 in 10.0 mi North - - N/A   Clear
5:55 AM 26.6 °F - 10.4 °F 51% 30.44 in 10.0 mi North - - N/A   Clear
6:15 AM 26.6 °F - 10.4 °F 51% 30.43 in 10.0 mi North - - N/A   Clear
6:35 AM 26.6 °F - 10.4 °F 51% 30.43 in 10.0 mi North - - N/A   Clear
6:55 AM 23.0 °F - 10.4 °F 59% 30.43 in 10.0 mi North - - N/A   Clear
7:15 AM 23.0 °F - 10.4 °F 59% 30.43 in 10.0 mi North - - N/A   Clear
7:35 AM 24.8 °F - 10.4 °F 54% 30.42 in 10.0 mi North - - N/A   Clear
7:55 AM 26.6 °F - 12.2 °F 55% 30.43 in 10.0 mi North - - N/A   Clear
8:15 AM 23.0 °F - 12.2 °F 63% 30.42 in 10.0 mi North - - N/A   Clear
8:35 AM 23.0 °F - 14.0 °F 68% 30.41 in 10.0 mi North - - N/A   Clear
8:55 AM 23.0 °F - 12.2 °F 63% 30.41 in 10.0 mi North - - N/A   Clear
9:15 AM 23.0 °F - 12.2 °F 63% 30.40 in 10.0 mi North - - N/A   Clear
9:35 AM 21.2 °F - 12.2 °F 68% 30.40 in 10.0 mi North - - N/A   Clear
9:55 AM 21.2 °F - 12.2 °F 68% 30.41 in 10.0 mi North - - N/A   Clear
10:15 AM 21.2 °F - 12.2 °F 68% 30.41 in 10.0 mi North - - N/A   Clear
10:35 AM 21.2 °F - 12.2 °F 68% 30.40 in 10.0 mi North - - N/A   Clear
10:55 AM 23.0 °F - 14.0 °F 68% 30.40 in 10.0 mi North - - N/A   Clear
11:15 AM 23.0 °F - 14.0 °F 68% 30.38 in 10.0 mi North - - N/A   Clear
11:35 AM 23.0 °F - 14.0 °F 68% 30.37 in 10.0 mi North - - N/A   Clear
11:55 AM 23.0 °F - 14.0 °F 68% 30.36 in 10.0 mi North - - N/A   Clear
12:15 PM 23.0 °F - 14.0 °F 68% 30.35 in 10.0 mi North - - N/A   Clear
12:35 PM 23.0 °F - 14.0 °F 68% 30.33 in 10.0 mi North - - N/A   Clear
12:55 PM 23.0 °F - 14.0 °F 68% 30.32 in 10.0 mi North - - N/A   Clear
1:15 PM 23.0 °F - 14.0 °F 68% 30.30 in 10.0 mi North - - N/A   Clear
1:35 PM 23.0 °F - 14.0 °F 68% 30.29 in 10.0 mi North - - N/A   Clear
1:55 PM 23.0 °F - 14.0 °F 68% 30.28 in 10.0 mi North - - N/A   Clear
2:35 PM 23.0 °F - 14.0 °F 68% 30.27 in 10.0 mi North - - N/A   Clear
2:55 PM 23.0 °F - 14.0 °F 68% 30.26 in 10.0 mi North - - N/A   Clear
3:15 PM 23.0 °F - 14.0 °F 68% 30.25 in 10.0 mi North - - N/A   Clear
3:35 PM 23.0 °F - 15.8 °F 74% 30.25 in 10.0 mi North - - N/A   Clear
3:55 PM 23.0 °F - 15.8 °F 74% 30.24 in 10.0 mi North - - N/A   Clear
4:15 PM 23.0 °F - 17.6 °F 80% 30.23 in 10.0 mi North - - N/A   Clear
4:35 PM 23.0 °F - 17.6 °F 80% 30.22 in 10.0 mi North - - N/A   Clear
4:55 PM 23.0 °F - 17.6 °F 80% 30.22 in 10.0 mi North - - N/A   Clear
5:15 PM 23.0 °F - 17.6 °F 80% 30.20 in 10.0 mi North - - N/A   Clear
5:35 PM 24.8 °F - 17.6 °F 74% 30.19 in 10.0 mi North - - N/A   Clear
5:55 PM 26.6 °F - 19.4 °F 74% 30.18 in 10.0 mi North - - N/A   Clear
6:15 PM 24.8 °F - 19.4 °F 80% 30.17 in 10.0 mi North - - N/A   Clear
6:35 PM 24.8 °F - 17.6 °F 74% 30.16 in 10.0 mi North - - N/A   Clear
6:55 PM 24.8 °F - 17.6 °F 74% 30.15 in 10.0 mi North - - N/A   Clear
7:15 PM 24.8 °F - 17.6 °F 74% 30.14 in 10.0 mi North - - N/A   Clear
7:35 PM 23.0 °F - 17.6 °F 80% 30.12 in 10.0 mi North - - N/A   Clear
7:55 PM 23.0 °F - 17.6 °F 80% 30.11 in 10.0 mi North - - N/A   Clear
8:35 PM 23.0 °F - 17.6 °F 80% 30.08 in 10.0 mi North - - N/A   Clear
8:55 PM 23.0 °F - 17.6 °F 80% 30.09 in 10.0 mi North - - N/A   Clear
9:15 PM 30.2 °F 18.9 °F 17.6 °F 60% 30.10 in 10.0 mi South 16.1 mph - N/A   Clear
9:35 PM 30.2 °F - 15.8 °F 55% 30.08 in 10.0 mi North - - N/A   Clear
9:55 PM 28.4 °F - 17.6 °F 64% 30.08 in 10.0 mi North - - N/A   Clear
10:15 PM 30.2 °F - 14.0 °F 51% 30.07 in 10.0 mi North - - N/A   Clear
10:35 PM 32.0 °F 20.1 °F 12.2 °F 44% 30.08 in 10.0 mi SSW 19.6 mph 26.5 mph N/A   Clear
10:55 PM 33.8 °F 23.5 °F 8.6 °F 35% 30.07 in 10.0 mi SW 16.1 mph 26.5 mph N/A   Clear
11:15 PM 33.8 °F 23.5 °F 8.6 °F 35% 30.07 in 10.0 mi SW 16.1 mph 27.6 mph N/A   Clear
11:35 PM 35.6 °F 21.3 °F 8.6 °F 33% 30.06 in 10.0 mi WSW 36.8 mph 41.4 mph N/A   Clear
11:55 PM 35.6 °F 22.1 °F 8.6 °F 33% 30.06 in 10.0 mi WSW 32.2 mph 41.4 mph N/A   Clear